Time,TemperatureF,DewpointF,PressureIn,WindDirection,WindDirectionDegrees,WindSpeedMPH,WindSpeedGustMPH,Humidity,HourlyPrecipIn,Conditions,Clouds,dailyrainin,SoftwareType,DateUTC
2017-09-21 00:00:00,53.4,-46.0,30.03,ENE,63,0.0,0.0,1,0.00,,,0.01,weatherlink.com 1.10,2017-09-20 22:00:00,
2017-09-21 00:15:00,53.0,-46.0,30.02,South,171,0.0,0.0,1,0.00,,,0.01,weatherlink.com 1.10,2017-09-20 22:15:00,
2017-09-21 00:30:00,53.2,-46.0,30.02,NE,55,0.0,0.0,1,0.00,,,0.01,weatherlink.com 1.10,2017-09-20 22:30:00,
2017-09-21 00:45:00,53.3,-46.0,30.02,NE,55,0.0,0.0,1,0.00,,,0.01,weatherlink.com 1.10,2017-09-20 22:45:00,
2017-09-21 01:00:00,53.5,-46.0,30.02,NE,55,0.0,0.0,1,0.00,,,0.00,weatherlink.com 1.10,2017-09-20 23:00:00,
2017-09-21 01:16:00,53.6,-46.0,30.02,NE,56,0.0,0.0,1,0.00,,,0.00,weatherlink.com 1.10,2017-09-20 23:16:00,
2017-09-21 01:31:00,53.5,-46.0,30.01,NE,56,0.0,0.0,1,0.00,,,0.00,weatherlink.com 1.10,2017-09-20 23:31:00,
2017-09-21 01:46:00,53.4,-46.0,30.01,NE,56,0.0,0.0,1,0.00,,,0.00,weatherlink.com 1.10,2017-09-20 23:46:00,
2017-09-21 02:01:00,53.3,-46.0,30.01,NE,56,0.0,0.0,1,0.00,,,0.00,weatherlink.com 1.10,2017-09-21 00:01:00,
2017-09-21 02:16:00,53.3,-46.0,30.01,NE,56,0.0,0.0,1,0.00,,,0.00,weatherlink.com 1.10,2017-09-21 00:16:00,
2017-09-21 02:31:00,53.2,-46.0,30.02,NE,56,0.0,0.0,1,0.00,,,0.00,weatherlink.com 1.10,2017-09-21 00:31:00,
2017-09-21 02:46:00,52.8,-46.0,30.01,NE,56,0.0,0.0,1,0.00,,,0.00,weatherlink.com 1.10,2017-09-21 00:46:00,
2017-09-21 03:01:00,52.4,-46.0,30.01,NE,56,0.0,0.0,1,0.00,,,0.00,weatherlink.com 1.10,2017-09-21 01:01:00,
2017-09-21 03:16:00,52.4,-46.0,30.01,WNW,302,0.0,0.0,1,0.00,,,0.00,weatherlink.com 1.10,2017-09-21 01:16:00,
2017-09-21 03:31:00,52.4,-46.0,30.00,SE,136,0.0,0.0,1,0.00,,,0.00,weatherlink.com 1.10,2017-09-21 01:31:00,
2017-09-21 03:47:00,52.3,-46.0,30.00,SE,136,0.0,0.0,1,0.00,,,0.00,weatherlink.com 1.10,2017-09-21 01:47:00,
2017-09-21 04:01:00,52.3,-46.0,30.00,SE,136,0.0,0.0,1,0.00,,,0.00,weatherlink.com 1.10,2017-09-21 02:01:00,
2017-09-21 04:16:00,52.1,-46.0,30.00,SSW,210,1.0,2.0,1,0.00,,,0.00,weatherlink.com 1.10,2017-09-21 02:16:00,
2017-09-21 04:32:00,51.7,-47.0,30.00,SSW,210,0.0,0.0,1,0.00,,,0.00,weatherlink.com 1.10,2017-09-21 02:32:00,
2017-09-21 04:47:00,51.4,-47.0,30.00,SSW,210,0.0,0.0,1,0.00,,,0.00,weatherlink.com 1.10,2017-09-21 02:47:00,
2017-09-21 05:02:00,51.3,-47.0,30.00,SSW,210,0.0,0.0,1,0.00,,,0.00,weatherlink.com 1.10,2017-09-21 03:02:00,
2017-09-21 05:21:00,51.4,-47.0,29.99,SSW,210,0.0,0.0,1,0.00,,,0.00,weatherlink.com 1.10,2017-09-21 03:21:00,
2017-09-21 05:32:00,51.4,-47.0,29.99,SSW,210,0.0,0.0,1,0.00,,,0.00,weatherlink.com 1.10,2017-09-21 03:32:00,
2017-09-21 05:47:00,51.3,-47.0,29.99,SSW,210,0.0,0.0,1,0.00,,,0.00,weatherlink.com 1.10,2017-09-21 03:47:00,
2017-09-21 06:02:00,51.2,-47.0,29.98,SSW,210,0.0,0.0,1,0.00,,,0.00,weatherlink.com 1.10,2017-09-21 04:02:00,
2017-09-21 06:17:00,51.1,-47.0,29.98,SSW,210,0.0,0.0,1,0.00,,,0.00,weatherlink.com 1.10,2017-09-21 04:17:00,
2017-09-21 06:32:00,51.0,-47.0,29.98,SSW,210,0.0,0.0,1,0.00,,,0.00,weatherlink.com 1.10,2017-09-21 04:32:00,
2017-09-21 06:47:00,50.7,-47.0,29.99,SSW,210,0.0,0.0,1,0.00,,,0.00,weatherlink.com 1.10,2017-09-21 04:47:00,
2017-09-21 07:02:00,51.0,-47.0,29.99,SSW,208,0.0,0.0,1,0.00,,,0.00,weatherlink.com 1.10,2017-09-21 05:02:00,
2017-09-21 07:17:00,51.2,-47.0,29.99,SSW,208,0.0,0.0,1,0.00,,,0.00,weatherlink.com 1.10,2017-09-21 05:17:00,
2017-09-21 07:32:00,51.3,-47.0,29.98,SSW,208,0.0,0.0,1,0.00,,,0.00,weatherlink.com 1.10,2017-09-21 05:32:00,
2017-09-21 07:47:00,51.5,-47.0,29.99,SSW,208,0.0,0.0,1,0.00,,,0.00,weatherlink.com 1.10,2017-09-21 05:47:00,
2017-09-21 08:03:00,51.7,-47.0,30.00,SSW,208,0.0,0.0,1,0.00,,,0.00,weatherlink.com 1.10,2017-09-21 06:03:00,
2017-09-21 08:18:00,51.8,-47.0,30.00,WSW,252,0.0,0.0,1,0.00,,,0.00,weatherlink.com 1.10,2017-09-21 06:18:00,
2017-09-21 08:33:00,52.3,-46.0,30.00,SSW,197,0.0,0.0,1,0.00,,,0.00,weatherlink.com 1.10,2017-09-21 06:33:00,
2017-09-21 08:48:00,52.9,-46.0,30.01,SSW,198,0.0,0.0,1,0.00,,,0.00,weatherlink.com 1.10,2017-09-21 06:48:00,
2017-09-21 09:03:00,53.6,-46.0,30.01,South,189,0.0,0.0,1,0.00,,,0.00,weatherlink.com 1.10,2017-09-21 07:03:00,
2017-09-21 09:18:00,54.3,-45.0,30.02,South,189,0.0,0.0,1,0.00,,,0.00,weatherlink.com 1.10,2017-09-21 07:18:00,
2017-09-21 09:33:00,54.9,-45.0,30.03,South,189,0.0,0.0,1,0.00,,,0.00,weatherlink.com 1.10,2017-09-21 07:33:00,
2017-09-21 09:48:00,55.5,-44.0,30.03,South,189,0.0,0.0,1,0.03,,,0.03,weatherlink.com 1.10,2017-09-21 07:48:00,
2017-09-21 10:03:00,55.9,-44.0,30.04,South,189,0.0,0.0,1,0.04,,,0.04,weatherlink.com 1.10,2017-09-21 08:03:00,
2017-09-21 10:18:00,56.2,-44.0,30.04,South,189,0.0,0.0,1,0.06,,,0.06,weatherlink.com 1.10,2017-09-21 08:18:00,
2017-09-21 10:33:00,56.7,-44.0,30.05,South,189,0.0,0.0,1,0.06,,,0.06,weatherlink.com 1.10,2017-09-21 08:33:00,
2017-09-21 10:48:00,57.3,-43.0,30.05,South,189,0.0,0.0,1,0.03,,,0.06,weatherlink.com 1.10,2017-09-21 08:48:00,
2017-09-21 11:03:00,58.0,-43.0,30.05,South,190,0.0,0.0,1,0.04,,,0.08,weatherlink.com 1.10,2017-09-21 09:03:00,
2017-09-21 11:18:00,58.5,-43.0,30.06,South,190,0.0,0.0,1,0.04,,,0.09,weatherlink.com 1.10,2017-09-21 09:18:00,
2017-09-21 11:34:00,58.9,-42.0,30.06,South,190,0.0,0.0,1,0.10,,,0.16,weatherlink.com 1.10,2017-09-21 09:34:00,
2017-09-21 11:50:00,59.3,-42.0,30.07,South,190,0.0,0.0,1,0.15,,,0.22,weatherlink.com 1.10,2017-09-21 09:50:00,
2017-09-21 12:04:00,59.5,-42.0,30.07,South,190,0.0,0.0,1,0.19,,,0.27,weatherlink.com 1.10,2017-09-21 10:04:00,
2017-09-21 12:19:00,59.6,-42.0,30.08,East,87,0.0,0.0,1,0.20,,,0.29,weatherlink.com 1.10,2017-09-21 10:19:00,
2017-09-21 12:34:00,60.3,-41.0,30.07,South,183,0.0,0.0,1,0.13,,,0.30,weatherlink.com 1.10,2017-09-21 10:34:00,
2017-09-21 12:49:00,62.2,-40.0,30.08,NNE,13,0.0,3.0,1,0.08,,,0.30,weatherlink.com 1.10,2017-09-21 10:49:00,
2017-09-21 13:04:00,62.0,-40.0,30.08,ENE,63,2.0,5.0,1,0.03,,,0.30,weatherlink.com 1.10,2017-09-21 11:04:00,
2017-09-21 13:19:00,62.2,-40.0,30.07,ENE,61,3.0,10.0,1,0.01,,,0.30,weatherlink.com 1.10,2017-09-21 11:19:00,
2017-09-21 13:34:00,62.0,-40.0,30.08,NNE,33,3.0,6.0,1,0.00,,,0.30,weatherlink.com 1.10,2017-09-21 11:34:00,
2017-09-21 13:49:00,61.3,-41.0,30.09,WSW,238,0.0,0.0,1,0.00,,,0.30,weatherlink.com 1.10,2017-09-21 11:49:00,
2017-09-21 14:04:00,61.1,-41.0,30.10,North,5,0.0,0.0,1,0.00,,,0.30,weatherlink.com 1.10,2017-09-21 12:04:00,
2017-09-21 14:19:00,60.7,-41.0,30.10,NE,46,3.0,10.0,1,0.02,,,0.31,weatherlink.com 1.10,2017-09-21 12:19:00,
2017-09-21 14:34:00,61.3,-41.0,30.10,ENE,77,3.0,4.0,1,0.02,,,0.32,weatherlink.com 1.10,2017-09-21 12:34:00,
2017-09-21 14:49:00,61.2,-41.0,30.10,NE,40,0.0,4.0,1,0.02,,,0.32,weatherlink.com 1.10,2017-09-21 12:49:00,
2017-09-21 15:05:00,61.1,-7.0,30.10,NE,34,0.0,4.0,6,0.02,,,0.32,weatherlink.com 1.10,2017-09-21 13:05:00,
2017-09-21 15:20:00,61.1,-7.0,30.10,NE,38,0.0,5.0,6,0.01,,,0.32,weatherlink.com 1.10,2017-09-21 13:20:00,
2017-09-21 15:35:00,61.1,-41.0,30.10,ENE,74,0.0,3.0,1,0.00,,,0.32,weatherlink.com 1.10,2017-09-21 13:35:00,
2017-09-21 15:50:00,61.1,-41.0,30.11,NE,39,0.0,3.0,1,0.00,,,0.32,weatherlink.com 1.10,2017-09-21 13:50:00,
2017-09-21 16:05:00,60.9,-41.0,30.11,ENE,72,0.0,5.0,1,0.00,,,0.32,weatherlink.com 1.10,2017-09-21 14:05:00,
2017-09-21 16:20:00,60.6,-41.0,30.11,ENE,69,0.0,4.0,1,0.00,,,0.32,weatherlink.com 1.10,2017-09-21 14:20:00,
2017-09-21 16:35:00,60.5,-41.0,30.11,ENE,65,0.0,4.0,1,0.00,,,0.32,weatherlink.com 1.10,2017-09-21 14:35:00,
2017-09-21 16:50:00,60.5,-41.0,30.12,NE,41,0.0,4.0,1,0.01,,,0.33,weatherlink.com 1.10,2017-09-21 14:50:00,
2017-09-21 17:05:00,60.4,-41.0,30.12,NE,53,0.0,0.0,1,0.02,,,0.34,weatherlink.com 1.10,2017-09-21 15:05:00,
2017-09-21 17:21:00,60.8,-41.0,30.12,NE,55,0.0,0.0,1,0.02,,,0.34,weatherlink.com 1.10,2017-09-21 15:21:00,
2017-09-21 17:35:00,60.8,-41.0,30.12,WSW,248,0.0,0.0,1,0.02,,,0.34,weatherlink.com 1.10,2017-09-21 15:35:00,
2017-09-21 17:50:00,60.9,-41.0,30.12,WSW,248,0.0,0.0,1,0.01,,,0.34,weatherlink.com 1.10,2017-09-21 15:50:00,
2017-09-21 18:05:00,60.9,-41.0,30.12,WSW,248,0.0,0.0,1,0.00,,,0.34,weatherlink.com 1.10,2017-09-21 16:05:00,
2017-09-21 18:21:00,61.0,-41.0,30.12,WSW,248,0.0,0.0,1,0.00,,,0.34,weatherlink.com 1.10,2017-09-21 16:21:00,
2017-09-21 18:36:00,61.1,2.0,30.13,WSW,248,0.0,0.0,9,0.00,,,0.34,weatherlink.com 1.10,2017-09-21 16:36:00,
2017-09-21 18:51:00,61.0,-21.0,30.13,WSW,248,0.0,0.0,3,0.00,,,0.34,weatherlink.com 1.10,2017-09-21 16:51:00,
2017-09-21 19:06:00,60.7,20.0,30.13,NW,306,0.0,0.0,21,0.01,,,0.35,weatherlink.com 1.10,2017-09-21 17:06:00,
2017-09-21 19:21:00,60.3,-2.0,30.13,NW,306,0.0,0.0,8,0.01,,,0.35,weatherlink.com 1.10,2017-09-21 17:21:00,
2017-09-21 19:36:00,60.2,-42.0,30.14,SW,214,0.0,0.0,1,0.01,,,0.35,weatherlink.com 1.10,2017-09-21 17:36:00,
2017-09-21 19:51:00,59.9,-42.0,30.14,SW,214,0.0,0.0,1,0.01,,,0.35,weatherlink.com 1.10,2017-09-21 17:51:00,
2017-09-21 20:06:00,59.6,-42.0,30.14,SW,214,0.0,0.0,1,0.00,,,0.35,weatherlink.com 1.10,2017-09-21 18:06:00,